User: anonymous   Login
Location: Fisheating Creek Campgrounds
(26.9333°N, 81.3167°W)
Time: 21:51:56
(UTC-04:00)
Language:

Cosmos 2221 Rocket - Orbit

View from above orbital plane
View from above orbital plane
View from above satellite
View from above satellite

Ground track
Ground track

The orbit data is extracted from the following two-line orbital elements,

1 22237U 92080B   16180.28444090  .00000091  00000-0  94215-5 0  9998
2 22237  82.5131  86.9295 0018247 284.0537 194.8301 14.78268026271154
Epoch (UTC): 28 June 2016 06:49:35
Eccentricity: 0.0018247
inclination: 82.5131°
perigee height: 622 km
apogee height: 647 km
right ascension of ascending node: 86.9295°
argument of perigee: 284.0537°
revolutions per day: 14.78268026
mean anomaly at epoch: 194.8301°
orbit number at epoch: 27115

The dashed part of the orbit path shows where the satellite is in the earth's shadow,  

DLR